Home   Weather   Plauen   Past weeks
Flag for Germany

Past Weather in Plauen, Saxony, Germany — Yesterday and Last 2 Weeks

Now
36 °F

Mostly cloudy.


Feels Like: 26 °F
Forecast: 43 / 34 °F
Wind: 15 mph from Southwest

Location: Hof Airport

Current Time: Feb 20, 2020 at 12:56:01 pm

Latest Report: Feb 20, 2020 at 12:20 pm


Visibility: N/A

Pressure: 30.09 "Hg

Humidity: 93%

Dew Point: 34 °F

Location of PlauenLocation

Past Weather in Plauen — Graph

°F

Plauen Temperature Yesterday

Maximum temperature yesterday: 37 °F (at 10:50 am)
Minimum temperature yesterday: 34 °F (at 7:20 am)
Average temperature yesterday: 35 °F

High & Low Weather Summary for the Past Weeks

 TemperatureHumidityPressure
High54 °F (Feb 16, 3:20 pm)100% (Feb 13, 4:50 pm)30.48 "Hg (Feb 13, 4:50 pm)
Low28 °F (Feb 5, 5:50 pm)47% (Feb 16, 4:20 pm)29.33 "Hg (Feb 10, 6:20 am)
Average38 °F81%30.00 "Hg
* Reported Feb 5 11:20 am — Feb 20 11:20 am, Plauen. Weather by CustomWeather, © 2020

Note: Actual official high and low records may vary slightly from our data, if they occured in-between our weather recording intervals... More about our weather records

Plauen Weather History for the Previous 24 Hours

Scroll right to see more
 ConditionsComfort  
Time TempWeatherWind HumidityBarometerVisibility
11:20 am
Thu, Feb 20
36 °FLight rain. Partly sunny.15 mph93%30.12 "Hg5 mi
10:50 am34 °FLight snow. Partly sunny.15 mph93%30.09 "HgN/A
10:20 am34 °FLight snow. Low clouds.16 mph93%30.09 "Hg3 mi
9:50 am34 °FLow clouds.12 mph93%30.12 "HgN/A
9:20 am34 °FLow clouds.10 mph93%30.12 "Hg6 mi
8:50 am34 °FLight snow. Low clouds.13 mph93%30.12 "Hg4 mi
8:20 am32 °FLight snow. Low clouds.12 mph100%30.12 "Hg4 mi
7:50 am32 °FLight snow. Low clouds.14 mph100%30.09 "Hg3 mi
7:20 am32 °FLight snow. Low clouds.13 mph100%30.09 "Hg6 mi
6:50 am32 °FLow clouds.13 mph93%30.09 "Hg6 mi
6:20 am32 °FLight snow. Passing clouds.13 mph93%30.09 "HgN/A
7:50 pm
Wed, Feb 19
36 °FOvercast.13 mph75%30.12 "HgN/A
7:20 pm36 °FOvercast.10 mph81%30.12 "HgN/A
6:50 pm36 °FOvercast.12 mph81%30.12 "HgN/A
6:20 pm36 °FClear.12 mph75%30.09 "Hg10 mi
5:50 pm36 °FPassing clouds.12 mph75%30.07 "HgN/A
5:20 pm36 °FPartly sunny.10 mph75%30.07 "HgN/A
4:50 pm36 °FOvercast.14 mph75%30.04 "HgN/A
4:20 pm36 °FPartly sunny.17 mph81%30.04 "HgN/A
3:50 pm36 °FScattered clouds.17 mph81%30.01 "HgN/A
3:20 pm36 °FPartly sunny.16 mph81%30.01 "HgN/A
2:50 pm36 °FSprinkles. Broken clouds.16 mph87%30.01 "Hg3 mi
2:20 pm36 °FLight rain. Broken clouds.14 mph87%30.01 "HgN/A
1:50 pm37 °FBroken clouds.14 mph81%29.98 "HgN/A
1:20 pm37 °FScattered clouds.9 mph93%29.98 "HgN/A
12:50 pm36 °FLight rain. Broken clouds.14 mph93%29.95 "HgN/A
12:20 pm36 °FBroken clouds.13 mph93%29.95 "HgN/A
Weather by CustomWeather, © 2020

See weather overview

Advertising